GFSFLT1_con_lsi_000.txt.gz
Lid_Strength_Index
4 4 3 3 3 3 2 2 2 2 2 2 1 0 0 -0 -2 -0 0 0 0 0 0 -0 -1 -1 -1 -1 -1 -0 -1 -0 0
4 4 3 3 3 2 2 2 2 2 2 1 1 1 1 0 0 -0 -1 -1 -1 0 -1 -0 -0 -1 -1 -0 -0 -0 -0 0 0
4 4 3 3 3 3 2 2 2 1 1 1 1 1 1 1 0 -0 -0 -1 -0 -1 -1 -1 -1 -0 -0 -0 -0 -0 -0 -0 0
3 3 4 3 3 3 2 2 2 2 1 1 1 1 1 0 -0 -0 -0 -0 -0 -1 -1 -1 -0 -0 -0 0 0 -0 -0 0 0
3 3 3 3 3 3 3 2 2 2 1 1 1 1 1 1 0 -1 -1 -0 -0 -1 -1 -1 -0 -0 0 0 0 -0 0 1 0
3 3 3 3 3 3 3 3 2 2 1 1 1 1 1 1 1 1 0 -0 -0 -1 -1 -0 -0 -0 0 0 0 0 0 0 1
3 4 3 4 3 3 3 2 2 2 1 1 1 1 1 1 1 1 0 0 -0 -0 -0 0 -0 -0 0 0 0 0 0 0 0
3 3 4 4 4 3 3 3 2 2 1 1 1 1 1 1 1 0 0 0 0 0 0 -0 -0 0 0 0 0 0 -0 -0 0
4 3 3 3 3 3 3 3 2 2 2 1 1 2 1 1 1 1 1 1 1 0 0 -0 -0 0 0 0 0 1 -0 0 1
4 3 3 3 3 3 3 3 2 2 2 1 1 1 1 1 1 1 1 1 1 1 -0 0 0 1 0 1 0 3 1 0 0
3 3 3 3 2 3 2 2 2 2 1 1 2 2 1 1 1 1 1 1 1 1 1 1 1 1 1 1 1 3 2 1 0
2 2 2 2 2 2 2 2 2 2 2 2 2 2 2 1 1 1 1 1 1 1 1 1 1 1 1 1 1 3 3 2 1
3 2 1 1 1 2 2 2 2 2 2 2 2 2 2 1 1 1 1 1 1 1 0 1 1 1 1 2 0 3 3 1 1
2 1 2 1 1 2 2 2 2 2 2 2 2 1 1 1 1 1 1 1 1 1 1 1 1 1 1 0 0 0 1 3 1
2 2 2 2 2 3 2 1 2 2 3 1 1 1 1 1 1 1 1 0 0 1 1 2 2 1 2 1 1 3 2 3 3
3 2 2 2 2 2 2 1 1 2 1 -0 -1 -0 1 0 -0 0 -0 0 1 2 1 2 1 2 2 2 1 1 2 3 4
3 2 2 2 2 3 2 2 2 1 1 0 0 1 1 1 1 1 1 1 1 2 1 2 2 3 2 2 1 2 3 2 0
3 3 3 3 3 3 3 3 3 2 1 2 2 1 1 1 1 1 1 4 5 1 5 5 2 2 2 2 2 4 8 7 4
3 3 3 3 3 3 3 2 2 2 1 1 1 1 2 1 1 2 2 2 4 9 9 11 11 9 6 4 7 9 10 10 9
3 3 3 3 3 2 2 2 2 2 1 0 1 1 1 1 2 1 1 2 2 3 6 9 9 8 8 9 9 10 10 10 9

GFSFLT1_con_lsi_003.txt.gz
Lid_Strength_Index
5 4 4 4 4 3 3 3 2 2 3 2 2 2 2 1 1 1 1 2 2 2 2 1 1 1 1 1 1 0 0 1 1
6 5 4 4 3 3 3 3 3 2 2 2 2 2 1 1 2 2 1 1 2 1 1 1 1 1 1 1 0 0 1 1 1
5 5 4 4 3 3 3 2 2 2 2 2 2 1 1 1 1 1 1 1 2 1 1 1 1 1 1 1 1 1 1 2 1
6 5 4 4 3 3 3 2 2 2 2 2 2 2 1 1 2 1 1 1 1 1 1 1 1 1 1 1 1 1 1 1 1
5 5 4 4 3 3 3 3 3 2 2 2 2 2 1 3 2 1 1 1 1 1 1 1 1 1 1 1 1 1 1 2 1
5 5 4 4 4 4 3 3 3 3 2 2 2 2 2 2 2 1 2 1 1 1 1 1 1 1 1 1 1 1 1 1 1
5 5 5 4 4 4 3 3 3 3 3 2 2 2 2 2 2 1 1 1 1 1 1 1 1 1 1 1 1 1 1 1 2
6 6 5 5 5 4 4 3 3 4 4 3 2 2 2 2 2 1 1 1 1 1 1 1 1 1 1 1 1 1 1 1 1
6 6 5 5 4 4 4 3 4 4 4 4 3 2 2 2 2 1 1 1 1 1 1 1 1 2 1 1 1 2 1 1 1
6 5 5 6 5 4 4 3 3 4 4 3 2 2 2 2 2 2 2 1 1 2 2 2 2 1 1 2 1 3 2 1 2
5 5 5 5 4 4 3 3 3 3 3 3 2 2 2 2 2 2 2 2 2 2 2 2 2 2 1 1 1 2 2 1 2
4 4 4 4 4 4 3 3 3 3 3 3 2 3 2 2 2 2 2 2 2 2 2 2 2 2 2 2 2 4 3 3 2
4 4 4 4 3 3 3 3 3 3 3 3 3 2 2 2 2 2 2 2 2 2 2 2 3 3 1 2 3 3 3 3 2
4 4 3 3 3 4 3 2 2 3 3 3 2 2 2 2 2 2 2 2 2 3 2 4 3 2 2 1 3 3 3 4 3
4 4 4 3 4 4 3 2 3 3 3 2 2 2 2 2 2 2 2 3 2 2 2 3 2 3 2 3 2 3 3 3 3
4 4 4 3 4 4 3 3 3 4 4 5 5 2 2 2 2 3 3 3 2 2 2 3 3 3 4 3 2 3 3 4 3
4 4 4 4 4 6 7 5 5 6 5 4 3 3 2 2 2 2 2 3 3 3 4 3 3 3 4 3 4 6 6 5 4
5 4 4 4 6 6 6 4 4 4 3 2 4 3 2 2 2 3 6 8 7 4 8 6 4 5 5 5 6 7 8 8 6
4 4 4 5 5 4 4 4 4 2 2 2 2 3 3 4 3 4 5 7 8 10 9 11 11 10 6 7 7 8 9 10 10
4 4 4 4 4 4 3 3 3 2 2 1 2 3 3 4 4 3 3 5 6 8 8 10 10 10 8 8 8 8 9 9 10

GFSFLT1_con_lsi_006.txt.gz
Lid_Strength_Index
5 5 4 4 4 3 3 3 2 2 3 3 5 5 5 2 2 3 2 2 2 3 3 2 1 1 1 1 1 1 1 2 2
6 5 5 4 4 3 3 3 3 2 3 4 4 4 2 2 2 1 2 2 3 3 2 2 1 1 1 1 1 1 1 2 1
6 5 5 4 4 3 3 3 2 2 2 3 4 3 2 2 2 1 2 2 2 1 2 2 2 1 1 1 1 1 1 2 2
6 5 5 4 4 3 3 2 2 2 2 3 4 2 2 2 2 2 2 2 2 1 1 1 1 2 2 2 2 1 2 2 2
6 6 4 4 3 3 3 3 3 3 2 3 3 2 2 1 2 2 2 2 2 2 2 2 1 1 1 1 1 1 2 2 2
7 6 5 4 4 4 4 3 3 3 2 2 3 2 2 3 4 4 2 2 2 2 2 2 2 2 2 2 2 2 1 1 1
6 5 5 4 4 4 3 3 3 3 2 2 3 2 2 4 4 3 2 2 2 2 2 2 2 2 2 2 2 1 1 2 2
5 6 5 5 4 4 4 3 3 3 2 2 3 3 3 4 3 2 2 2 2 2 2 2 2 2 2 2 1 1 1 2 1
6 6 5 5 5 4 4 3 3 3 3 3 3 3 3 3 2 2 1 1 1 2 2 2 2 2 2 3 1 1 2 2 3
7 6 5 5 5 4 4 3 3 3 3 3 4 4 3 3 2 2 2 1 2 2 2 3 2 2 3 2 2 2 3 1 3
7 6 6 6 5 4 3 3 3 3 4 4 4 4 3 2 2 2 2 2 2 2 2 2 2 3 2 2 2 3 4 2 3
6 6 5 4 4 3 3 3 3 4 4 4 5 4 3 2 2 2 2 2 2 2 2 3 3 3 2 3 2 3 4 3 3
4 4 4 4 4 3 4 4 4 4 5 5 5 4 3 2 2 2 2 2 2 2 2 3 2 3 3 2 2 4 4 4 3
5 4 3 4 4 4 4 4 3 5 5 5 4 3 2 2 2 2 2 2 2 3 3 4 4 2 2 2 3 3 4 5 4
6 6 5 3 4 4 3 4 3 5 5 5 4 4 4 3 2 1 1 2 3 3 3 4 4 2 2 3 4 5 5 4 4
5 4 4 3 4 4 4 3 4 7 7 5 5 5 4 3 4 3 2 2 3 4 4 4 4 3 4 5 5 6 6 5 5
5 4 4 4 4 6 6 6 6 6 5 5 5 5 5 2 3 3 1 3 3 3 4 5 4 4 5 6 7 7 6 5 5
5 5 5 5 5 6 7 7 7 6 5 5 5 3 3 3 2 2 5 6 7 6 9 6 5 5 5 5 6 6 8 7 6
5 5 5 6 6 6 7 6 6 5 4 4 4 5 4 2 2 3 6 8 8 10 10 11 11 9 8 8 8 8 9 9 10
5 5 5 5 5 5 4 4 4 3 3 3 3 3 3 3 3 5 7 7 7 8 8 9 10 10 9 8 8 9 9 9 9

GFSFLT1_con_lsi_009.txt.gz
Lid_Strength_Index
5 5 5 5 4 4 3 3 3 2 2 2 3 5 6 7 5 3 3 3 3 3 3 3 2 1 1 1 1 1 2 2 2
6 5 5 5 4 4 3 3 3 2 2 2 3 5 6 7 4 4 3 2 2 4 3 2 1 2 2 1 1 1 1 2 2
6 5 5 5 4 4 3 3 2 2 2 2 3 5 6 5 3 3 2 2 3 4 2 2 2 2 2 2 1 2 2 2 2
6 5 5 4 4 3 3 3 2 2 2 2 3 4 5 5 3 2 2 3 3 3 2 2 2 2 2 2 2 2 2 2 2
6 5 5 4 4 3 3 3 3 3 2 2 3 4 5 5 3 3 3 3 3 2 2 2 1 2 2 2 2 2 2 2 2
6 6 5 4 4 4 3 3 3 3 2 2 2 4 5 4 3 2 2 2 2 2 2 2 2 2 2 2 2 2 2 2 2
6 6 6 5 4 4 3 3 3 3 3 2 2 3 4 4 4 2 2 2 2 2 2 2 2 2 2 2 2 2 2 2 2
7 7 6 5 4 4 4 3 3 3 2 2 2 3 4 4 4 3 3 2 2 2 2 2 2 2 2 2 1 2 2 2 2
7 6 5 5 4 4 4 4 3 3 3 2 2 2 3 4 4 3 3 2 1 2 2 2 2 2 2 2 2 2 1 1 3
6 6 5 5 5 4 4 3 3 3 3 2 3 2 3 4 4 3 3 2 1 2 2 2 2 2 3 2 2 3 3 1 3
7 6 6 5 5 4 4 3 3 3 2 2 3 3 4 4 3 2 2 2 2 2 1 2 2 3 2 3 2 4 2 2 3
7 7 7 6 4 4 4 3 3 3 3 3 3 3 4 4 3 3 2 2 2 2 2 2 2 3 3 3 2 3 3 3 4
6 6 5 5 4 3 4 3 3 4 4 4 4 4 4 4 3 3 3 2 2 2 2 2 3 3 3 3 2 3 5 4 4
6 5 4 4 4 4 4 3 4 5 4 5 5 4 4 4 4 2 2 2 2 2 3 3 4 3 3 3 2 2 5 5 4
5 5 5 4 4 4 3 4 4 5 5 5 5 5 6 6 4 3 4 4 4 2 2 3 4 4 3 3 4 5 5 5 5
5 4 4 3 4 4 4 4 5 5 6 6 5 5 6 5 4 4 3 4 4 3 2 3 4 4 4 4 4 6 6 7 5
5 4 4 4 4 5 6 5 5 5 6 6 5 5 5 5 4 3 3 3 3 2 2 4 4 4 4 5 7 7 7 6 6
5 4 4 5 6 6 7 6 6 5 5 4 4 4 4 4 4 4 4 6 5 4 7 7 5 5 5 5 7 6 8 7 7
5 5 5 5 6 7 7 6 6 5 4 4 4 4 4 3 3 3 4 6 9 11 12 12 12 9 7 8 8 9 9 10 9
5 5 5 6 5 6 6 6 5 4 4 3 3 5 4 3 3 4 6 6 8 8 9 11 12 11 10 8 8 9 9 10 10

GFSFLT1_con_lsi_015.txt.gz
Lid_Strength_Index
4 4 4 4 3 3 3 2 2 2 2 1 1 1 1 0 0 1 1 0 1 1 1 0 -1 -1 -1 -1 -1 -1 -1 -0 -0
5 4 4 4 3 3 2 2 2 2 2 1 1 1 1 1 0 0 1 0 0 0 -0 -0 -1 -1 -1 -1 -1 -1 -1 -0 -0
5 4 4 4 3 3 2 2 2 1 1 1 1 1 1 1 1 1 0 0 0 -0 -0 -1 -0 -0 -0 -1 -1 -1 -1 -0 -1
5 4 4 4 3 3 2 2 2 2 1 1 1 1 1 1 1 1 1 0 0 0 -0 -0 -0 -0 -0 -0 -0 -1 -0 -0 -0
4 4 4 3 3 3 3 2 2 2 2 2 1 1 1 1 1 1 0 4 0 -0 -0 -0 -0 -0 -0 -0 -0 -1 -0 0 -0
4 4 4 4 3 3 3 3 2 2 2 2 1 1 1 1 1 1 2 1 0 -0 -0 -0 -0 -0 0 0 -0 -0 -0 -0 -0
4 4 4 4 4 3 3 3 2 2 2 1 1 1 1 1 1 1 1 2 2 1 0 0 0 0 0 0 0 -0 -0 -0 -0
5 5 4 4 4 4 3 3 3 2 2 1 1 1 1 2 1 0 1 2 2 1 1 1 1 0 0 0 0 0 -0 -0 0
5 5 4 4 4 3 3 3 3 2 2 2 1 2 2 1 1 1 1 2 1 1 2 1 1 1 1 1 1 1 1 0 0
5 5 4 4 4 3 3 3 2 2 2 1 2 2 2 1 1 1 2 2 2 2 3 2 1 1 1 1 0 2 2 1 0
5 4 4 3 3 3 2 2 2 1 1 2 2 2 2 1 1 1 1 1 2 2 1 2 1 1 1 1 0 3 3 2 -0
3 3 3 3 2 2 2 2 2 2 2 2 2 2 2 1 1 1 2 2 3 2 1 1 1 1 0 1 0 4 4 1 0
3 3 3 3 2 2 2 2 2 2 2 2 2 2 2 1 1 1 2 2 3 1 1 1 1 1 1 1 1 3 4 1 0
3 3 3 2 2 3 2 2 2 3 2 3 2 1 1 1 1 1 3 2 1 1 1 1 2 2 1 1 1 0 4 5 0
4 4 3 3 3 3 2 2 2 3 3 2 1 1 2 2 1 1 1 2 1 1 1 2 2 2 2 1 0 4 5 5 5
4 4 4 3 3 3 2 2 2 3 2 2 2 2 2 2 1 1 1 1 2 2 1 2 2 2 3 2 1 0 7 7 6
4 3 3 3 3 3 3 2 2 2 2 1 2 2 2 2 2 2 1 1 1 2 2 2 2 2 3 2 1 1 1 1 2
4 3 3 3 3 3 3 2 2 1 1 1 2 2 2 2 2 2 3 5 3 1 1 2 2 2 2 2 2 1 3 3 1
3 4 3 3 3 3 3 2 2 1 1 1 2 2 2 2 2 2 3 3 5 11 10 11 11 10 4 3 8 10 10 10 11
4 3 3 3 3 3 2 2 2 1 1 1 1 2 2 2 3 2 2 2 2 3 7 12 13 12 11 8 8 10 10 11 11

GFSFLT1_con_lsi_021.txt.gz
Lid_Strength_Index
3 3 3 3 2 2 2 2 1 1 1 2 1 1 1 0 0 1 1 0 0 0 0 -0 -1 -1 -1 -1 -1 -1 -1 -1 -0
3 3 3 3 2 2 2 2 1 1 1 1 1 1 1 1 0 0 0 -0 -0 -0 -1 -0 -1 -1 -1 -1 -1 -1 -1 -0 -1
3 3 3 3 2 2 2 1 1 1 1 1 1 1 1 1 1 0 0 -0 0 -0 -1 -1 -1 -0 -1 -1 -1 -1 -1 -1 -1
3 3 3 3 2 2 2 1 1 1 1 1 1 1 1 1 1 0 0 0 0 0 -1 -1 -1 -0 -0 -0 0 -0 -0 -0 -1
3 2 2 2 2 2 2 2 2 1 1 1 1 1 1 1 1 1 1 1 0 -0 0 -0 -0 -0 -0 0 0 0 1 1 -0
3 2 2 2 2 2 2 2 2 2 1 1 1 1 1 1 1 1 1 1 0 0 0 0 -0 0 0 0 1 1 0 0 0
3 2 2 2 2 2 2 2 2 2 1 1 1 1 1 1 1 1 1 1 0 0 0 0 0 0 0 0 0 0 0 0 0
3 3 2 3 3 2 2 2 2 2 1 1 1 1 1 1 1 1 1 1 0 0 0 0 0 0 0 -0 0 0 0 0 0
3 3 2 2 2 2 2 2 2 2 2 1 1 1 1 1 1 1 1 1 1 1 1 0 0 0 1 1 1 2 1 0 0
3 3 3 2 2 3 2 2 2 2 2 1 1 1 1 1 1 1 1 1 1 1 1 1 1 1 1 0 -0 3 2 1 -0
3 3 2 2 2 2 2 2 2 1 1 1 2 2 2 1 1 1 1 1 1 1 1 1 1 1 0 0 0 4 4 3 -0
2 2 2 2 1 2 2 2 1 2 2 2 2 2 2 1 1 2 1 2 2 1 1 1 1 1 0 1 0 4 5 2 0
2 2 1 2 1 2 2 2 1 2 2 2 2 2 2 1 1 1 2 1 1 1 1 1 1 1 0 2 0 5 5 3 1
2 2 2 1 1 2 2 1 1 2 2 3 2 1 1 1 1 1 1 1 1 1 2 1 1 1 1 1 1 0 6 6 1
3 2 2 2 2 2 2 1 2 2 2 1 1 1 1 1 1 1 1 1 1 2 2 2 2 2 2 0 -0 4 7 7 7
3 3 2 2 2 2 2 2 2 3 2 1 1 1 2 2 1 1 1 2 2 2 2 2 2 2 2 2 1 0 7 7 6
3 3 3 2 2 3 3 2 2 2 1 1 2 2 2 2 2 2 1 2 2 2 2 2 2 2 2 2 1 1 0 0 3
3 3 2 2 3 3 3 2 2 1 1 1 2 2 2 2 2 2 2 5 3 2 4 5 2 2 1 2 3 2 3 3 2
3 3 2 2 3 3 2 2 2 1 1 1 2 2 2 2 2 2 2 2 4 13 12 13 12 11 5 4 7 10 12 11 10
3 3 3 3 3 2 2 2 2 1 1 1 2 2 2 2 2 2 2 2 2 3 5 11 12 11 11 9 10 12 12 11 11

GFSFLT1_con_lsi_024.txt.gz
Lid_Strength_Index
4 4 3 3 3 3 3 2 2 2 2 2 1 1 1 1 1 1 1 1 1 1 1 1 0 0 -0 -0 -0 -0 -0 0 0
4 4 4 3 3 3 2 2 2 2 2 2 2 1 1 1 1 1 1 0 0 1 0 -0 0 -0 0 -0 -0 -0 0 0 1
4 4 3 3 3 3 2 2 2 2 2 2 2 1 1 1 1 1 1 1 1 1 0 -0 0 0 0 0 -0 0 0 0 0
4 3 3 3 3 2 2 2 2 2 2 2 2 1 1 1 1 1 1 1 1 1 0 0 0 0 0 0 0 0 0 0 0
3 3 3 3 3 3 2 2 2 2 2 2 2 1 1 1 1 1 1 1 1 0 1 0 0 0 1 0 0 0 1 1 1
4 4 3 3 3 3 3 2 2 2 2 2 1 1 2 1 1 1 1 1 1 1 1 1 0 0 1 1 1 1 0 1 1
3 2 2 2 2 3 3 2 2 2 2 1 1 2 2 2 2 1 1 1 1 1 1 1 1 1 1 1 0 0 1 1 1
3 3 4 3 3 2 3 3 2 2 2 2 1 2 2 2 1 1 1 1 1 1 1 1 1 1 1 1 1 1 1 1 1
4 4 3 3 3 3 2 3 3 2 2 2 1 2 2 2 2 1 1 1 1 1 1 1 1 1 1 1 1 2 2 1 1
4 4 3 3 3 3 3 2 2 3 2 2 2 2 2 2 2 2 2 1 1 1 1 1 1 1 1 1 1 3 2 1 1
4 3 3 2 2 3 2 2 2 2 2 2 2 2 2 2 2 2 2 2 2 2 1 1 1 1 1 1 1 4 4 2 0
3 3 3 2 2 2 2 2 2 2 2 2 2 3 2 2 2 2 2 2 2 2 2 2 2 1 1 1 1 6 4 3 1
2 2 2 2 2 2 2 2 2 2 3 3 3 2 2 2 2 2 2 2 2 1 1 2 1 1 1 3 2 6 6 4 1
2 2 2 2 0 1 2 2 2 3 3 3 2 2 2 2 2 2 2 2 1 1 2 2 2 2 1 2 3 2 7 7 1
3 3 2 2 1 1 2 2 3 3 3 2 2 2 2 2 2 2 2 2 2 2 2 2 2 2 2 1 1 4 7 7 6
3 3 3 2 2 3 2 2 2 3 3 2 2 2 2 2 2 1 1 2 2 2 2 2 3 3 3 2 1 0 8 8 7
3 3 3 3 3 4 3 2 2 2 2 2 2 2 2 2 2 2 2 2 2 2 2 3 3 3 3 2 1 1 2 3 4
4 3 3 3 4 4 3 3 2 2 2 2 2 2 2 2 2 2 4 7 6 2 5 5 2 2 2 3 3 2 3 2 1
4 4 3 4 4 4 3 3 2 2 1 2 2 3 3 3 2 2 4 5 7 14 13 14 14 11 4 5 8 11 11 11 10
4 4 3 3 3 3 3 3 2 2 2 2 2 3 3 2 3 2 2 2 3 6 9 12 13 13 10 9 11 12 12 11 10

GFSFLT1_con_lsi_027.txt.gz
Lid_Strength_Index
5 4 4 4 3 3 3 3 2 2 2 2 2 2 2 1 1 1 1 1 2 2 1 1 1 1 1 2 0 0 0 1 1
5 5 4 4 3 3 3 3 3 2 2 2 2 2 1 1 1 1 1 1 1 1 1 1 0 0 1 1 0 0 1 1 1
5 5 4 4 3 3 3 2 2 2 2 2 2 2 1 1 1 1 1 2 1 1 2 1 1 1 0 0 0 0 1 2 1
5 5 4 4 3 3 3 2 2 2 2 2 2 2 2 1 1 1 1 1 1 1 1 1 1 1 1 1 1 0 1 2 1
5 4 4 3 3 3 3 3 3 3 2 2 2 2 2 2 1 1 1 1 1 1 1 1 1 1 1 1 1 1 1 2 1
5 5 5 4 3 3 3 3 3 3 2 2 2 2 2 2 2 2 2 1 1 1 1 1 1 1 1 1 1 1 1 1 1
5 5 5 5 4 4 3 3 3 3 2 2 2 2 2 2 2 2 1 1 1 1 1 1 1 1 1 1 1 1 1 1 1
5 5 5 5 4 4 3 3 3 3 2 2 2 2 2 2 2 1 1 1 1 1 1 1 1 1 1 1 1 1 1 1 1
6 6 5 5 5 4 3 3 3 3 3 2 2 2 3 2 2 2 2 2 1 1 1 1 2 2 2 1 1 3 3 1 1
5 5 5 5 4 4 3 3 3 3 3 2 2 2 2 2 2 2 2 2 2 2 2 1 2 2 2 2 2 5 4 2 1
6 5 4 4 4 4 4 3 2 2 2 2 2 3 2 2 2 2 2 2 2 2 2 2 2 3 3 2 2 6 6 4 3
6 5 6 4 4 3 3 3 2 2 3 3 3 3 3 2 2 2 2 2 2 2 2 2 2 2 2 2 4 8 7 5 3
5 5 4 4 3 3 3 3 3 3 3 3 3 3 3 2 2 2 2 2 2 2 2 2 2 3 3 4 4 7 7 6 3
5 5 5 4 3 3 4 3 3 3 3 3 3 2 2 2 2 2 2 2 2 2 2 3 3 3 3 3 3 5 8 7 2
5 6 4 4 4 4 3 3 3 4 4 3 2 2 2 2 2 2 2 2 2 3 3 3 4 3 3 3 3 5 8 7 6
5 5 5 4 4 4 4 3 3 4 3 3 2 3 3 2 2 2 2 3 3 3 4 4 3 3 3 3 2 2 7 8 7
5 5 5 4 4 4 4 3 3 3 3 2 3 3 3 3 4 4 4 3 3 4 4 3 3 3 3 3 2 5 6 7 7
5 5 4 4 4 4 4 3 3 3 2 2 3 3 4 4 5 8 10 13 9 4 9 5 3 3 2 3 3 4 6 6 4
5 5 4 4 4 4 4 3 3 3 3 3 4 4 4 5 6 7 8 9 10 14 14 14 13 10 5 9 9 10 11 10 8
4 4 4 4 4 4 3 3 3 3 3 3 3 4 3 4 5 5 6 6 7 9 10 13 15 14 11 10 11 12 12 11 10

GFSFLT1_con_lsi_030.txt.gz
Lid_Strength_Index
5 5 4 4 4 3 3 3 2 2 2 2 2 2 2 1 1 1 1 2 1 1 1 2 1 2 2 3 2 1 1 2 2
6 5 5 4 3 3 3 3 3 2 2 2 2 2 1 1 1 1 1 2 2 2 2 2 1 2 2 2 2 1 2 2 2
5 5 5 4 4 3 3 2 2 2 2 2 2 2 1 1 1 1 1 2 2 2 2 1 1 1 1 2 3 2 2 2 2
5 5 5 4 4 3 3 2 2 2 2 2 2 2 1 1 1 1 1 1 2 2 2 2 1 1 1 1 2 2 2 2 2
5 5 5 4 4 3 3 3 3 3 2 2 2 2 2 2 1 1 1 1 1 2 1 2 2 1 1 1 2 2 2 2 2
5 6 6 5 4 4 3 3 3 3 2 2 2 2 2 2 2 2 2 1 1 1 2 2 2 2 1 1 1 2 1 1 2
6 6 5 5 4 4 3 3 3 3 3 2 2 2 2 2 2 2 1 1 1 1 1 2 1 2 2 2 1 1 1 1 2
6 6 5 5 4 4 3 3 3 3 2 2 2 2 2 2 2 1 1 1 1 1 1 1 2 1 2 2 2 2 2 2 2
6 7 6 5 4 3 4 3 3 3 3 2 2 2 3 2 2 2 2 2 1 1 1 1 2 2 2 3 2 4 3 2 2
6 7 6 5 4 4 3 3 3 3 3 2 2 3 2 2 2 2 2 2 2 2 2 2 2 3 3 3 3 6 5 4 2
6 7 5 5 4 4 3 3 3 2 2 2 3 3 3 2 2 2 2 2 2 2 2 2 2 3 3 3 3 7 6 5 3
8 7 7 5 4 4 4 3 2 3 3 3 3 3 3 2 2 2 2 2 2 2 2 2 2 2 3 3 3 8 8 6 4
6 5 5 6 3 3 3 3 3 3 3 3 3 3 3 2 2 2 2 2 2 2 2 2 2 2 3 4 3 9 9 5 4
6 4 5 5 6 5 3 3 2 3 3 3 2 2 2 2 2 2 2 2 2 2 2 2 2 3 3 4 5 8 10 8 4
5 6 4 4 5 5 5 3 3 3 3 2 2 2 2 2 2 2 2 2 2 2 2 3 3 4 4 4 5 7 10 9 7
5 5 5 4 4 5 4 3 3 4 3 2 2 3 3 3 2 2 2 2 3 3 3 3 4 4 5 4 4 5 9 9 8
5 5 5 4 4 5 5 4 3 3 3 2 3 3 3 3 3 3 2 2 2 3 3 3 4 5 5 4 3 4 5 6 7
5 5 5 5 4 4 4 4 4 3 3 2 3 3 3 3 3 5 10 11 7 4 7 4 4 3 3 3 3 4 6 7 5
5 5 4 4 5 5 4 4 4 4 3 3 3 4 5 6 8 9 9 10 11 14 14 11 11 9 5 7 7 11 12 13 12
5 4 4 4 4 4 4 3 3 3 3 4 5 5 6 6 6 7 7 7 7 8 9 12 14 14 12 11 11 13 13 12 12

GFSFLT1_con_lsi_033.txt.gz
Lid_Strength_Index
5 5 4 4 4 3 3 3 3 2 2 2 2 2 2 1 1 1 1 2 2 1 2 1 1 1 2 4 3 3 3 2 2
5 5 4 4 4 3 3 3 3 2 2 2 2 2 1 1 1 1 2 2 2 1 1 1 2 1 2 3 3 3 3 2 2
6 5 5 4 4 3 3 2 2 2 2 2 2 2 1 1 1 1 1 1 2 2 2 1 2 2 2 3 4 3 2 2 2
5 5 5 4 4 3 3 2 2 2 2 2 2 2 2 2 1 1 1 1 1 2 2 2 2 2 2 3 4 2 2 3 2
5 5 4 4 4 3 3 3 3 3 2 2 2 2 2 2 1 1 1 1 1 1 2 2 2 2 2 2 2 3 2 3 2
5 5 5 5 5 5 4 3 3 3 2 2 2 2 2 2 2 2 2 1 1 1 2 3 2 2 2 2 2 3 3 2 3
6 5 5 5 5 5 4 3 3 3 3 2 2 2 2 2 2 2 2 1 1 1 1 2 3 3 2 2 2 3 2 3 3
6 6 5 5 5 5 5 4 3 3 2 2 2 2 2 2 2 1 1 1 1 1 1 1 2 3 3 2 2 2 2 2 3
6 6 6 6 5 4 4 3 3 3 3 3 2 2 3 2 2 2 2 2 1 1 1 1 2 2 3 3 2 4 4 3 3
6 6 5 7 7 5 4 3 3 3 3 2 2 3 2 2 2 2 2 2 2 2 2 1 2 2 2 2 2 6 5 4 3
6 6 7 7 6 6 4 3 3 2 2 2 3 3 3 2 2 2 2 2 2 2 2 2 2 2 2 2 2 6 6 4 3
5 6 6 6 5 5 4 3 2 3 3 3 3 3 3 2 2 2 2 2 2 2 2 2 2 2 2 2 2 7 8 6 4
6 8 6 6 5 4 4 4 3 3 3 3 3 3 3 2 2 2 2 2 2 2 2 2 2 2 2 4 2 9 9 7 4
5 5 5 7 6 4 3 4 3 3 3 4 3 2 2 2 2 2 2 2 2 2 2 2 2 2 2 3 3 8 11 8 4
6 5 5 5 7 7 5 3 3 3 4 3 2 2 2 2 2 2 2 2 2 2 2 3 3 3 2 3 5 10 11 10 7
6 5 5 4 5 5 4 4 3 4 3 2 2 3 3 3 2 2 2 2 3 3 2 3 3 3 3 4 5 7 11 10 10
6 5 5 4 4 5 4 3 3 3 3 3 3 3 3 3 3 3 2 2 2 3 3 3 3 4 3 4 5 5 6 7 7
5 5 5 5 4 4 4 4 4 4 3 4 4 3 3 3 3 3 6 11 6 2 6 3 4 3 3 4 3 4 7 7 6
5 5 5 4 4 4 4 4 4 4 4 4 3 4 5 7 7 7 8 8 10 14 12 12 12 10 6 4 7 11 12 14 12
6 5 5 4 4 4 3 4 3 3 4 5 5 7 7 7 7 6 6 7 7 6 9 12 13 13 11 9 10 14 14 14 14

GFSFLT1_con_lsi_036.txt.gz
Lid_Strength_Index
5 5 5 4 4 3 3 3 3 2 2 2 2 1 1 1 1 1 1 1 1 1 1 1 0 0 0 2 2 2 2 2 2
6 5 5 4 4 3 3 3 3 2 2 2 2 2 1 1 1 1 1 1 1 1 0 0 1 0 1 2 2 2 2 2 2
6 5 4 4 4 3 3 2 2 2 2 2 2 1 1 1 1 1 1 1 1 1 1 0 0 0 1 2 2 2 2 2 1
6 5 5 4 4 3 3 2 2 2 2 2 2 2 1 1 1 1 1 1 1 1 1 0 0 0 1 2 2 2 2 3 2
6 5 4 4 3 3 3 3 3 3 2 2 2 2 2 2 1 1 1 1 1 1 1 1 1 1 1 1 2 2 3 2 2
6 5 5 4 4 4 3 3 3 3 2 2 2 2 2 2 2 2 1 1 1 1 1 1 1 1 1 1 2 3 2 2 2
7 6 5 5 4 4 3 3 3 3 2 2 2 2 2 2 2 2 1 1 1 1 1 1 1 1 1 1 2 2 2 2 2
5 5 5 5 4 4 4 3 3 3 2 2 2 2 2 2 2 1 1 1 1 1 1 1 1 1 2 1 2 2 2 2 2
6 6 5 5 4 4 4 4 3 3 3 2 2 2 2 2 2 2 2 1 1 1 1 1 1 1 1 2 2 4 4 2 2
8 6 5 5 4 4 4 4 3 3 3 2 2 3 2 2 2 2 2 2 2 2 2 1 1 1 1 1 1 6 6 4 2
8 7 5 4 4 3 3 3 3 2 2 3 3 3 3 2 2 2 2 2 2 2 2 2 2 2 1 1 1 6 6 5 2
8 7 5 4 4 4 3 4 3 3 3 3 3 3 3 2 2 2 2 2 2 2 2 2 2 1 1 1 1 7 7 6 2
6 6 5 4 4 4 4 4 3 3 3 3 3 3 3 2 2 2 2 2 2 2 2 2 2 2 1 3 1 7 8 6 2
5 5 5 4 4 3 3 3 3 3 3 4 3 2 2 2 2 2 2 2 2 2 2 2 2 2 2 1 2 3 9 9 2
4 4 4 3 6 6 4 3 3 4 4 2 2 2 2 2 2 2 2 2 2 2 2 2 3 2 2 2 1 6 10 10 6
5 5 5 4 4 4 3 3 3 3 3 2 2 2 2 2 2 2 2 2 2 3 2 3 3 3 3 3 2 3 11 10 9
5 5 5 4 4 4 4 3 3 3 2 2 2 3 3 2 2 2 2 2 2 2 3 3 3 3 3 3 4 5 6 5 4
5 5 4 4 4 4 4 3 3 3 3 3 4 3 3 3 3 6 7 8 9 7 10 7 3 3 3 5 6 6 6 5 2
5 5 4 4 4 5 4 3 3 3 4 3 4 5 5 6 6 5 5 6 7 13 13 13 14 13 9 6 9 11 10 10 9
6 5 4 4 4 4 3 3 3 4 4 4 5 5 5 6 6 7 7 7 7 8 8 13 13 12 10 10 8 9 13 13 13

GFSFLT1_con_lsi_042.txt.gz
Lid_Strength_Index
3 4 3 3 3 2 2 2 1 1 1 1 1 1 1 0 0 0 0 0 0 0 0 -0 -1 -1 -1 -1 -1 -1 -1 -0 -0
3 3 3 3 2 2 2 2 2 1 1 1 1 1 1 1 0 0 0 -0 -0 0 -1 -0 -1 -1 -1 -1 -1 -1 -1 -0 -0
3 3 3 3 3 2 2 2 1 1 1 1 1 1 1 1 1 0 0 0 0 -0 -0 -1 -1 -1 -1 -1 -1 -1 -1 -0 -1
3 3 3 3 3 2 2 1 1 1 1 1 1 1 1 1 1 0 0 0 0 0 -0 -1 -0 -1 -0 -0 -0 -1 -0 -0 -1
3 3 2 2 2 2 2 2 1 2 1 1 1 1 1 1 1 1 1 1 0 -0 0 -0 -0 -0 -0 -0 -0 -0 -0 0 -0
3 2 2 2 2 2 2 2 2 1 1 1 1 1 1 1 1 1 1 1 0 0 0 0 -0 -0 0 0 0 0 -0 -0 0
4 3 2 2 2 2 2 2 2 2 1 1 1 1 1 1 1 1 1 1 0 0 0 0 0 0 0 0 -0 -0 -0 0 0
4 4 3 2 3 2 2 2 2 2 1 1 1 1 1 1 1 1 1 1 1 0 0 0 0 0 0 0 0 0 0 0 0
3 3 3 3 2 2 2 2 2 1 2 1 1 1 2 1 1 1 1 1 1 1 1 1 0 1 1 1 1 3 3 1 0
3 3 3 3 2 2 2 2 1 2 1 1 1 1 1 1 1 1 1 1 1 1 1 1 1 1 1 1 0 5 5 3 0
3 3 2 3 3 2 1 1 1 1 1 1 2 2 2 1 1 1 1 1 1 1 1 1 1 1 1 1 1 6 6 4 0
2 2 2 2 1 2 1 1 1 1 1 1 2 2 2 2 1 1 1 2 2 1 1 1 1 1 1 1 1 7 8 5 0
2 2 1 1 1 1 1 1 1 1 2 2 2 2 2 1 1 1 2 1 1 1 1 1 1 1 1 2 1 6 9 6 1
2 2 2 1 1 1 1 1 1 1 2 2 2 1 1 1 1 1 1 1 1 1 1 1 1 2 1 1 1 1 10 10 1
3 3 2 2 2 2 1 1 1 2 2 1 1 1 1 1 1 1 1 1 1 1 1 2 2 2 2 2 1 5 9 10 9
3 3 2 2 2 1 1 1 1 2 2 1 1 1 1 1 1 1 1 2 2 2 2 2 2 2 3 2 1 1 7 5 8
3 3 3 2 2 2 2 2 2 1 1 1 1 2 2 1 2 2 1 1 1 2 2 2 2 3 3 2 1 1 1 4 7
3 3 3 2 3 3 3 2 2 1 1 1 2 2 2 2 2 2 2 1 2 2 1 3 2 2 2 2 2 2 5 5 4
3 4 3 3 3 3 3 3 3 2 1 1 1 2 2 2 2 2 2 2 3 15 16 17 17 14 7 2 13 14 15 15 14
5 4 4 3 3 3 2 2 2 2 1 1 2 2 2 2 3 2 2 2 3 4 8 15 17 17 17 16 15 16 16 16 16

GFSFLT1_con_lsi_045.txt.gz
Lid_Strength_Index
3 3 3 3 3 2 2 2 1 1 1 2 1 1 1 0 0 1 1 0 0 0 0 -0 -1 -0 -1 -1 -1 -1 -1 -0 -0
4 3 3 3 2 2 2 2 2 1 1 1 1 1 1 1 0 1 1 0 -0 0 -0 -0 -1 -1 -0 -1 -1 -1 -1 -0 0
3 3 3 3 3 2 2 2 1 1 1 1 1 1 1 1 1 0 0 0 0 0 -0 -1 -1 -0 -0 -0 -0 -1 -0 -0 -0
3 3 3 3 2 2 2 1 1 1 1 1 1 1 1 1 1 1 0 0 0 0 -0 -0 -0 -0 -0 -0 -0 -0 -0 -0 -0
3 3 2 2 2 2 2 2 2 1 1 1 1 1 1 1 1 1 1 1 0 -0 0 -0 -0 -0 0 0 0 -0 0 0 0
3 3 2 2 2 2 2 2 2 2 1 1 1 1 1 1 1 1 1 1 0 0 0 0 0 0 0 0 0 0 0 0 0
3 3 2 2 2 2 2 2 2 2 1 1 1 1 1 1 1 1 1 1 1 0 0 0 0 0 0 0 0 0 0 0 0
3 3 3 2 2 2 1 2 2 2 1 1 1 1 1 1 1 1 1 1 1 0 0 0 0 0 0 0 0 0 0 0 1
4 4 3 2 2 2 2 2 2 2 2 1 1 1 1 1 1 1 1 1 1 1 1 1 0 1 1 1 1 3 4 1 1
3 3 3 3 3 2 1 1 1 2 1 1 1 1 1 1 1 1 1 1 1 1 1 1 1 1 1 1 1 5 5 3 0
3 2 2 2 2 2 1 1 1 1 1 1 1 2 2 1 1 1 1 1 1 1 1 1 1 1 1 1 1 6 8 5 0
2 2 2 2 1 1 1 1 1 1 1 1 2 2 2 1 1 2 2 2 2 1 1 1 1 1 1 1 1 7 8 6 1
2 2 2 2 1 1 1 1 1 1 1 2 2 2 2 1 1 1 2 2 2 1 1 1 1 1 1 2 1 7 9 6 1
2 2 2 2 1 2 1 1 1 1 1 2 1 1 1 1 1 1 1 1 1 1 1 1 1 1 1 1 1 1 10 9 1
3 3 2 2 2 2 1 1 1 1 2 1 1 1 1 1 1 1 1 1 1 1 1 2 2 2 2 1 1 5 10 8 7
3 3 3 2 2 2 1 1 0 2 2 1 1 1 2 1 1 1 1 2 2 2 2 2 2 2 2 2 1 1 8 9 9
3 3 3 2 2 2 2 1 1 1 1 1 1 2 2 2 2 2 1 1 2 2 2 2 2 3 3 2 2 1 1 1 4
3 3 3 2 2 2 2 1 1 1 1 1 2 2 2 2 2 2 2 2 3 2 2 5 2 2 2 2 2 2 6 3 1
3 3 3 3 2 3 3 2 2 2 1 1 1 2 2 2 2 2 2 2 4 16 15 17 17 17 9 2 11 13 13 13 13
4 3 3 3 3 2 3 3 3 2 1 1 1 2 2 2 3 2 2 2 2 3 11 17 17 18 17 18 19 17 18 18 16

GFSFLT1_con_lsi_048.txt.gz
Lid_Strength_Index
4 4 4 3 3 3 3 2 2 2 2 2 1 1 1 1 1 1 1 1 1 1 1 1 0 0 -0 -0 -0 -0 -0 0 0
4 4 4 3 3 3 2 2 2 2 2 2 2 1 1 1 1 1 1 1 0 1 0 0 0 0 0 0 -0 -0 -0 0 1
4 4 3 3 3 3 2 2 2 1 1 2 2 1 1 1 1 1 1 0 1 1 0 0 -0 0 0 0 0 0 0 0 0
4 4 4 3 3 3 2 2 2 2 2 2 2 1 1 1 1 1 1 1 1 1 0 0 0 0 0 0 0 0 0 0 0
3 3 3 3 3 3 2 2 2 2 2 2 2 1 1 1 1 1 1 1 1 0 1 0 0 0 0 1 0 0 1 1 1
4 3 3 3 3 3 3 2 2 2 2 2 1 1 1 1 1 1 1 1 1 1 1 1 0 0 1 1 1 1 1 1 1
3 3 3 3 3 3 3 2 2 2 2 1 1 1 2 2 2 1 1 1 1 1 1 1 1 1 1 1 1 1 1 1 1
4 4 3 3 3 3 3 3 2 2 2 2 1 2 2 2 1 1 1 1 1 1 1 1 1 1 1 1 1 1 1 1 1
4 4 3 3 2 1 1 3 2 2 2 2 1 2 2 2 2 1 1 1 1 1 1 1 1 1 1 1 1 3 4 1 1
3 3 3 2 2 1 -0 1 2 2 2 1 2 2 2 2 2 2 2 1 1 1 1 1 1 1 1 1 1 5 6 4 1
3 3 3 2 2 2 2 2 1 2 2 2 2 2 2 2 2 2 2 2 2 2 1 2 2 1 1 1 1 6 7 6 1
2 2 1 2 2 2 1 2 1 2 2 2 2 2 2 2 2 2 2 2 2 2 2 2 2 1 1 2 1 7 8 7 2
3 3 3 3 2 2 2 2 1 2 2 2 3 2 2 1 1 2 2 2 2 1 1 2 1 2 1 2 1 6 9 7 1
3 3 2 2 2 2 2 1 2 1 0 2 2 2 2 2 2 2 2 2 1 2 2 2 2 2 1 1 1 1 10 11 1
3 3 3 2 3 2 2 1 1 2 2 1 0 1 2 2 2 2 2 2 2 2 2 2 2 2 2 1 1 6 10 12 9
3 3 3 2 3 3 2 2 1 2 2 1 1 2 2 2 2 2 1 2 2 2 2 3 3 3 3 2 1 1 9 12 11
3 3 3 3 3 3 3 1 1 1 1 1 2 2 2 2 2 2 2 2 2 2 2 3 3 3 3 3 2 2 1 5 7
3 3 3 3 3 3 3 2 2 1 1 1 2 2 2 2 2 2 2 2 4 2 5 6 3 2 2 3 3 2 7 6 1
3 3 3 3 3 3 3 2 2 2 2 1 2 3 3 3 2 2 2 4 6 17 17 18 18 17 7 8 14 16 16 16 16
3 2 3 3 3 3 3 2 2 2 2 2 2 2 2 2 3 2 3 3 3 6 12 18 18 18 17 17 18 18 17 17 17